Temperature
18 18 18 18 18 18 18 17 17 17 17 17 17 17 17 17 17 16 16 16 16 16 16 16 16 16 15 15 15 15 15 15 15 15 15 15 15 15
17 17 17 17 17 17 17 17 17 17 17 17 17 17 17 17 16 16 16 16 16 16 16 16 15 15 15 15 15 15 15 15 15 15 15 15 15 15
17 17 17 17 17 17 17 17 17 17 16 17 17 17 16 16 16 16 16 16 16 15 15 15 15 15 15 15 15 15 15 15 15 15 15 15 15 14
17 16 16 17 17 17 17 17 17 16 16 16 16 16 16 16 16 16 15 15 15 15 15 15 15 15 15 15 15 15 15 15 15 14 14 14 14 14
16 16 16 16 16 16 16 16 16 16 16 16 16 16 16 16 15 15 15 15 15 15 15 15 15 15 15 15 15 15 14 14 14 14 14 14 14 14
16 16 16 16 16 16 16 16 16 16 16 15 15 15 15 15 15 15 15 15 15 15 15 15 15 15 15 15 15 14 14 14 14 14 14 14 14 14
16 16 16 16 16 16 15 15 15 15 15 15 15 15 15 14 14 14 14 14 14 14 14 14 14 15 15 14 14 14 14 14 14 14 14 14 14 13
15 15 15 15 15 15 15 15 15 15 15 15 15 14 14 14 14 14 14 14 14 14 14 14 14 14 14 14 14 14 14 14 14 14 14 13 13 13
15 15 15 15 15 15 15 15 15 15 15 15 14 14 14 14 14 14 14 14 14 14 14 14 14 14 14 14 14 14 14 14 13 13 13 13 13 13
15 15 15 15 15 15 15 15 15 15 15 14 14 14 14 14 14 14 14 13 13 13 13 13 13 13 13 13 14 14 14 14 13 13 13 13 13 13
15 15 15 14 15 15 15 15 15 15 15 14 14 14 14 14 14 14 13 13 13 13 13 13 13 13 13 13 13 13 13 13 13 13 13 13 13 12
14 14 14 14 14 14 14 14 14 14 14 14 14 14 14 14 14 13 13 13 13 13 13 13 13 13 12 13 13 13 13 13 13 13 13 12 12 12
14 14 14 14 14 14 14 14 14 14 14 14 14 14 13 13 13 13 13 13 13 13 13 13 13 12 12 12 12 12 13 13 13 13 12 12 12 12
13 14 14 14 14 14 14 14 14 14 13 13 13 13 13 13 13 13 13 13 13 13 13 12 12 12 12 12 12 12 12 12 12 12 12 12 12 11
13 13 13 13 13 13 13 13 13 13 13 13 13 13 13 13 13 13 13 13 13 13 12 12 12 12 12 12 12 12 12 12 12 12 12 12 11 11
13 13 13 13 13 13 13 13 13 13 12 12 12 12 12 12 12 12 12 12 12 12 12 12 12 12 12 12 12 12 12 11 12 11 11 11 11 11
13 13 13 13 13 12 12 12 12 12 12 12 12 12 12 12 12 12 12 12 12 11 11 11 11 11 11 11 11 11 11 11 11 11 11 11 11 11
13 13 13 12 12 12 12 12 12 12 12 12 11 11 11 11 11 11 11 11 11 11 11 11 11 11 11 11 11 11 11 11 11 11 11 10 10 10
12 12 12 12 12 12 12 11 11 11 11 11 11 11 11 11 11 11 11 11 11 11 11 10 10 10 10 10 10 10 10 10 10 10 10 10 10 10
12 12 12 12 11 11 11 11 11 11 11 11 11 11 11 11 10 10 10 10 10 10 10 10 10 10 10 10 10 10 10 10 10 10 10 10 10 10
11 11 11 11 11 11 11 11 11 11 11 11 10 10 10 10 10 10 10 10 10 10 10 10 10 10 9 9 9 9 10 10 10 10 10 10 10 9
11 11 11 11 11 11 10 10 10 10 10 10 10 10 10 10 10 10 10 9 9 9 9 9 9 9 9 9 9 9 9 9 9 9 9 9 9 9
11 11 11 11 10 10 10 10 10 10 10 10 10 10 10 9 9 9 9 9 9 9 9 9 9 9 9 9 9 9 9 9 9 9 9 9 9 9
Wind_Speed
3 3 3 2 2 2 2 2 2 2 2 2 1 1 3 4 8 6 5 8 8 7 8 8 7 6 6 6 6 6 7 7 6 6 6 5 6 7
3 3 3 3 3 3 2 2 2 2 2 2 1 1 2 2 6 5 4 7 9 9 9 9 8 8 7 6 6 6 6 6 6 6 6 5 5 5
3 3 3 3 3 3 2 1 1 2 3 2 1 0 1 1 2 4 5 5 6 9 10 10 10 10 9 8 7 7 6 6 6 6 5 5 5 4
3 3 3 3 3 3 2 2 2 2 2 3 2 1 1 1 2 3 2 3 4 8 11 11 12 11 10 10 9 8 7 7 6 6 6 6 5 5
3 4 4 3 3 3 2 3 3 3 2 2 2 1 1 1 1 2 2 1 3 4 8 10 11 12 11 10 9 9 8 8 7 7 6 6 5 5
4 4 4 4 3 3 4 3 3 3 3 3 2 2 1 1 1 1 1 1 1 1 1 4 8 10 10 9 10 10 10 9 8 7 7 6 6 5
4 4 4 4 4 4 4 3 3 4 3 3 2 2 2 1 2 2 2 1 1 1 1 1 3 4 6 8 9 10 11 10 9 8 8 7 7 6
4 4 4 3 3 4 4 4 5 4 4 3 3 3 3 3 2 2 2 2 2 2 1 2 2 2 4 6 8 10 11 11 11 10 9 9 8 8
4 4 5 4 2 2 2 3 4 6 6 5 4 4 3 3 3 3 3 3 4 2 2 3 2 3 3 6 10 12 12 12 12 12 11 11 10 9
3 3 3 2 3 3 3 3 3 3 4 4 4 4 3 2 3 3 4 3 2 2 2 2 2 3 3 4 11 13 13 13 13 12 12 12 12 11
2 2 1 1 2 2 2 3 3 2 2 2 4 4 4 4 3 2 3 2 3 2 2 2 2 2 3 3 7 12 13 13 13 13 13 12 12 10
1 1 1 1 1 1 2 2 2 3 2 2 2 2 3 3 4 5 4 3 3 3 2 1 2 1 2 2 2 5 8 10 12 13 13 13 11 8
2 1 1 1 1 3 3 2 3 3 2 2 2 1 1 1 2 3 3 4 3 3 2 1 2 2 2 2 2 3 3 4 6 7 11 13 12 10
2 2 1 2 2 4 3 3 4 2 1 1 1 0 0 1 1 2 2 2 3 4 4 3 2 3 3 2 2 2 3 3 4 4 5 8 9 10
2 2 3 3 3 3 3 3 2 1 1 1 1 1 1 1 1 1 1 1 1 1 1 1 2 2 3 3 2 2 2 2 3 3 3 4 5 5
3 2 3 4 4 3 2 2 1 1 1 1 1 1 1 1 1 1 1 1 1 1 1 1 1 2 2 2 2 1 1 1 2 1 2 2 4 5
2 2 2 1 1 1 1 0 0 0 1 1 1 1 1 2 2 1 1 1 1 2 1 1 2 1 1 2 2 2 1 1 1 2 2 2 2 3
0 2 2 1 1 1 1 1 1 1 1 1 2 2 2 2 1 1 1 1 2 2 2 1 1 2 2 2 1 1 1 1 1 2 2 3 3 3
1 2 2 2 1 1 1 1 1 1 1 2 2 2 2 2 1 1 1 1 2 2 2 1 1 1 2 3 2 2 2 2 2 2 3 2 3 3
2 2 2 1 1 1 1 1 1 1 1 2 2 1 1 1 1 1 1 2 2 2 2 1 1 1 2 3 3 3 5 3 2 2 2 2 1 1
1 1 1 1 1 1 1 1 1 1 1 1 2 1 1 1 1 2 2 2 2 2 2 2 2 3 3 2 2 2 2 3 2 2 2 2 2 2
1 1 1 1 2 2 1 1 1 1 1 1 1 1 1 1 1 2 1 1 1 1 1 2 2 2 2 2 3 2 2 1 2 4 5 4 2 3
1 1 1 1 1 1 1 1 1 1 0 0 0 1 1 1 1 1 1 1 1 1 1 2 2 2 2 2 2 2 2 1 1 1 2 4 5 5
Wind_Direction
263 265 267 268 273 268 245 224 232 264 271 251 277 165 149 146 157 167 166 181 189 197 200 200 202 203 204 208 211 211 211 209 212 213 212 217 230 233
266 263 267 267 273 268 259 246 217 227 256 270 246 181 144 146 155 168 175 180 193 198 202 201 199 197 196 200 203 203 205 207 210 211 210 208 209 213
281 273 263 264 274 283 275 263 246 228 233 268 267 38 117 132 161 180 191 182 191 198 201 202 201 198 196 197 199 198 198 200 200 200 203 202 198 200
268 271 266 260 262 264 269 252 241 235 210 243 264 241 235 167 200 203 204 197 183 195 201 202 202 201 200 198 197 197 195 194 196 198 200 200 197 198
264 257 263 262 260 260 253 247 250 249 225 229 250 244 229 213 202 215 212 208 220 201 199 203 203 202 201 199 198 197 195 194 196 196 197 197 197 197
272 264 262 258 254 252 243 234 243 245 233 228 235 222 206 215 190 221 226 220 235 209 199 194 198 201 198 197 198 199 198 196 195 197 195 194 194 197
278 276 264 258 250 246 248 231 236 237 236 231 237 236 227 211 229 234 237 252 244 195 200 219 179 190 194 200 202 200 197 196 196 199 200 199 200 203
277 282 267 261 248 246 243 234 231 230 232 233 237 243 243 231 235 240 227 239 260 222 210 249 204 204 187 191 198 196 197 199 201 202 205 205 206 208
269 274 276 278 277 278 255 232 232 227 225 228 233 242 247 235 223 236 240 239 247 229 203 241 226 224 207 202 200 200 202 202 204 206 207 207 208 211
272 270 277 303 295 309 274 256 251 254 245 231 232 242 242 222 209 223 231 252 261 231 194 238 235 237 237 202 203 204 206 207 208 209 210 210 212 215
261 275 265 261 321 323 286 267 270 275 287 253 237 234 233 229 218 225 236 242 269 265 234 227 240 246 241 229 206 207 209 209 210 211 212 215 217 215
254 232 254 278 302 313 298 272 264 268 280 282 254 230 227 223 216 219 231 237 255 259 240 223 231 258 265 246 219 200 208 214 213 216 217 218 215 205
281 276 281 284 326 320 310 286 255 257 261 256 241 219 237 252 233 229 231 229 238 259 256 230 257 245 231 245 250 212 194 196 199 215 218 216 207 197
292 296 263 246 280 296 293 282 279 272 265 282 278 284 280 286 283 273 254 240 225 235 248 232 241 245 242 246 253 229 209 199 195 203 199 199 208 207
290 301 288 261 256 262 256 259 261 261 260 265 267 282 285 278 270 280 328 316 298 299 306 247 241 247 233 242 239 230 229 223 209 196 192 186 191 200
299 303 278 262 258 268 261 247 212 224 248 265 275 288 306 304 293 286 285 309 324 331 351 5 303 289 274 262 239 240 234 215 211 187 191 206 194 195
302 292 281 270 226 240 242 234 247 269 280 286 276 271 276 277 272 273 264 280 279 281 303 345 357 338 300 268 247 236 237 241 211 200 211 227 223 200
129 251 256 246 244 258 293 291 261 255 269 261 256 256 261 263 262 281 279 271 267 262 263 277 323 320 317 327 301 261 256 254 256 232 226 222 230 215
203 246 254 250 246 245 263 283 292 282 258 254 257 262 269 271 264 270 273 280 278 277 280 274 272 284 297 297 301 293 276 255 243 237 231 232 234 224
239 252 263 263 262 262 287 300 310 300 278 278 276 273 277 269 269 269 267 278 284 283 283 281 280 295 285 277 278 281 265 249 240 240 246 242 243 242
283 265 284 317 342 8 359 346 319 296 286 267 275 278 285 287 274 265 259 261 266 279 279 274 269 271 273 282 280 278 272 259 253 256 242 234 245 246
307 343 30 38 35 40 32 355 316 307 307 289 311 322 311 302 295 284 268 267 261 283 307 292 267 264 271 278 278 277 276 277 279 294 289 260 232 238
340 4 25 50 56 42 18 341 317 307 325 348 6 330 323 304 293 292 278 273 296 303 308 295 297 286 266 262 267 276 279 266 257 271 284 274 255 244
Height
1520 1521 1521 1521 1521 1521 1522 1522 1522 1521 1521 1521 1521 1520 1520 1520 1519 1519 1518 1518 1517 1517 1517 1517 1518 1518 1519 1519 1520 1521 1522 1523 1524 1525 1525 1526 1527 1528
1517 1517 1517 1518 1518 1518 1518 1519 1519 1519 1519 1519 1519 1519 1518 1518 1517 1517 1516 1516 1515 1515 1515 1516 1516 1516 1517 1518 1518 1519 1520 1520 1521 1522 1523 1523 1524 1525
1514 1514 1514 1514 1515 1515 1515 1515 1515 1516 1515 1516 1516 1517 1516 1516 1516 1515 1514 1514 1513 1513 1513 1514 1514 1514 1515 1515 1516 1517 1517 1518 1519 1519 1520 1521 1521 1522
1510 1511 1510 1511 1511 1511 1512 1512 1512 1513 1513 1513 1513 1514 1514 1514 1514 1513 1513 1512 1512 1511 1511 1511 1512 1512 1513 1513 1514 1514 1515 1516 1516 1517 1517 1518 1519 1519
1507 1506 1506 1507 1507 1508 1508 1508 1509 1509 1510 1510 1510 1511 1511 1511 1511 1511 1511 1510 1510 1510 1509 1509 1509 1510 1510 1511 1511 1512 1512 1513 1514 1514 1515 1515 1516 1516
1503 1503 1503 1503 1504 1504 1505 1505 1505 1506 1506 1507 1508 1508 1508 1508 1508 1508 1508 1508 1508 1508 1507 1507 1507 1507 1507 1508 1508 1509 1509 1510 1511 1511 1512 1512 1513 1513
1499 1499 1500 1500 1500 1501 1501 1501 1502 1502 1503 1504 1504 1505 1505 1505 1505 1505 1505 1505 1505 1505 1504 1504 1504 1504 1504 1505 1505 1506 1506 1507 1508 1508 1509 1509 1510 1510
1495 1495 1496 1497 1497 1497 1497 1498 1498 1499 1500 1500 1501 1501 1501 1501 1502 1502 1502 1502 1501 1502 1502 1501 1501 1501 1501 1501 1502 1503 1503 1504 1504 1505 1506 1506 1507 1507
1492 1492 1493 1493 1493 1493 1493 1494 1495 1496 1497 1497 1498 1497 1498 1498 1499 1499 1499 1499 1498 1498 1499 1498 1498 1498 1498 1498 1499 1499 1500 1500 1501 1501 1502 1503 1503 1504
1489 1489 1489 1489 1490 1490 1490 1490 1491 1492 1493 1494 1494 1494 1495 1495 1495 1496 1496 1496 1496 1496 1496 1495 1495 1495 1495 1495 1495 1496 1496 1497 1497 1498 1498 1499 1500 1500
1486 1486 1486 1486 1487 1487 1487 1487 1487 1488 1489 1490 1490 1491 1491 1492 1492 1493 1492 1492 1492 1492 1492 1492 1492 1492 1492 1491 1492 1492 1492 1493 1493 1494 1494 1495 1496 1497
1484 1484 1484 1484 1484 1484 1484 1484 1483 1484 1485 1486 1487 1487 1488 1489 1489 1490 1489 1489 1489 1489 1489 1490 1489 1489 1488 1488 1488 1488 1489 1489 1490 1490 1491 1491 1492 1493
1482 1482 1482 1482 1481 1482 1482 1481 1480 1482 1482 1483 1484 1484 1485 1485 1486 1486 1487 1487 1486 1486 1486 1486 1486 1486 1486 1485 1484 1485 1485 1485 1486 1486 1487 1488 1488 1489
1480 1480 1480 1479 1479 1479 1479 1479 1479 1479 1480 1480 1481 1481 1482 1482 1482 1483 1484 1484 1484 1484 1483 1483 1483 1482 1482 1482 1481 1482 1482 1482 1482 1482 1483 1484 1485 1485
1479 1478 1478 1478 1477 1477 1477 1477 1477 1477 1477 1478 1478 1478 1479 1480 1480 1480 1480 1480 1480 1481 1480 1480 1480 1479 1479 1479 1478 1478 1478 1479 1479 1478 1479 1480 1480 1481
1477 1476 1476 1476 1476 1476 1476 1476 1475 1475 1475 1476 1476 1476 1477 1477 1477 1477 1477 1477 1477 1477 1477 1477 1477 1477 1476 1476 1476 1475 1476 1476 1476 1476 1476 1476 1476 1477
1474 1474 1474 1474 1474 1474 1474 1474 1474 1474 1474 1473 1473 1474 1474 1475 1475 1475 1475 1475 1474 1474 1474 1474 1474 1474 1473 1473 1472 1472 1473 1473 1473 1473 1473 1472 1473 1473
1473 1472 1472 1472 1472 1472 1472 1472 1472 1472 1472 1471 1472 1472 1472 1472 1472 1472 1472 1472 1472 1472 1471 1471 1470 1470 1470 1470 1470 1469 1470 1470 1470 1470 1470 1469 1469 1470
1470 1470 1470 1470 1470 1471 1470 1470 1470 1470 1470 1470 1470 1470 1470 1470 1470 1470 1470 1470 1470 1469 1469 1469 1468 1467 1467 1466 1466 1467 1467 1466 1466 1466 1467 1467 1466 1467
1468 1468 1468 1468 1468 1469 1468 1468 1468 1468 1468 1468 1468 1468 1467 1467 1467 1467 1467 1467 1467 1467 1466 1466 1466 1466 1465 1465 1464 1464 1464 1464 1464 1463 1463 1463 1464 1464
1466 1466 1466 1467 1466 1466 1466 1466 1466 1466 1465 1466 1465 1465 1465 1465 1465 1465 1465 1465 1464 1464 1464 1463 1463 1464 1463 1463 1462 1461 1462 1462 1461 1461 1461 1461 1461 1461
1465 1465 1465 1465 1465 1465 1464 1464 1464 1464 1464 1463 1463 1463 1463 1463 1463 1463 1462 1462 1462 1462 1461 1461 1461 1461 1461 1460 1459 1459 1459 1459 1459 1459 1459 1459 1458 1457
1464 1464 1464 1463 1463 1463 1462 1462 1462 1462 1461 1461 1461 1461 1461 1461 1461 1460 1460 1460 1460 1460 1459 1459 1459 1459 1459 1459 1458 1457 1457 1456 1456 1456 1456 1456 1456 1456